Home > Weather > Auxerre > Past weeks

Flag for France Weather for the Past 2 Weeks in Auxerre, France

Now
37 °F

Mostly cloudy.


Feels Like: 33 °F
Forecast: 41 / 49 °F
Wind: 6 mph from West

Location: Troyes Airport

Current Time: Feb 12, 2016 at 10:06:04 PM

Latest Report: Feb 12, 2016 at 9:30 PM


Visibility: N/A

Pressure: 29.33 "Hg

Humidity: 93%

Dew point: 36 °F

Location of AuxerreLocation

Historic Weather in Auxerre — Graph

°F

Auxerre Temperature Yesterday

Maximum temperature yesterday: 43 °F (at 4:00 PM)
Minimum temperature yesterday: 32 °F (at 6:00 AM)
Average temperature yesterday: 37 °F

High & Low Weather Summary for the Past Weeks

 TemperatureHumidityPressure
High59 °F (Feb 6, 2:30 PM)100% (Jan 28, 9:00 PM)30.48 "Hg (Jan 28, 9:00 PM)
Low32 °F (Feb 11, 6:00 AM)55% (Feb 6, 2:30 PM)29.12 "Hg (Feb 9, 1:30 PM)
Average45 °F85%29.96 "Hg
* Reported Jan 28 9:00 PM — Feb 12 9:00 PM, Auxerre, Weather by CustomWeather, © 2016

Note: Actual official high and low records may vary slightly from our data, if they occured in-between our weather recording intervals... More about our weather records

Advertising

Auxerre Weather History for the Previous 24 Hours

 ConditionsComfort  
Time TempWeatherWind HumidityBarometerVisibility
9:00 PM
Fri, Feb 12
37 °FMostly cloudy.6 mph93%29.33 "HgN/A
8:30 PM37 °FMostly cloudy.6 mph93%29.30 "HgN/A
8:00 PM37 °FLow clouds.7 mph93%29.30 "HgN/A
7:30 PM37 °FLight rain. Mostly cloudy.6 mph93%29.30 "HgN/A
7:00 PM37 °FDrizzle. Low clouds.2 mph93%29.27 "HgN/A
6:30 PM37 °FDrizzle. Mostly cloudy.2 mph93%29.27 "HgN/A
6:00 PM37 °FLight rain. Mostly cloudy.6 mph93%29.24 "Hg4 mi
5:30 PM37 °FLight rain. Mostly cloudy.6 mph93%29.24 "Hg4 mi
5:00 PM37 °FLight rain. Mostly cloudy.9 mph93%29.24 "Hg4 mi
4:30 PM37 °FLight rain. Mostly cloudy.10 mph93%29.24 "HgN/A
4:00 PM37 °FLight rain. Overcast.10 mph93%29.24 "HgN/A
3:30 PM36 °FLight rain. Mostly cloudy.9 mph93%29.24 "Hg4 mi
3:00 PM37 °FLight rain. Partly sunny.10 mph93%29.24 "Hg5 mi
2:30 PM39 °FRain. Mostly cloudy.14 mph87%29.24 "HgN/A
2:00 PM41 °FLight rain. Mostly cloudy.14 mph87%29.27 "HgN/A
1:30 PM41 °FLight rain. Mostly cloudy.13 mph87%29.27 "HgN/A
1:00 PM41 °FLight rain. Mostly cloudy.13 mph87%29.30 "HgN/A
12:30 PM41 °FBroken clouds.13 mph87%29.30 "HgN/A
12:00 PM39 °FPartly sunny.15 mph87%29.33 "HgN/A
11:30 AM39 °FLight rain. Broken clouds.12 mph87%29.36 "HgN/A
11:00 AM37 °FBroken clouds.10 mph87%29.39 "HgN/A
10:30 AM37 °FSunny.12 mph87%29.42 "Hg10 mi
10:00 AM36 °FBroken clouds.8 mph87%29.45 "HgN/A
9:30 AM34 °FSunny.6 mph93%29.47 "Hg10 mi
9:00 AM34 °FSunny.7 mph93%29.47 "Hg10 mi
8:30 AM34 °FSunny.7 mph93%29.50 "Hg10 mi
8:00 AM34 °FSunny.7 mph93%29.53 "Hg10 mi
7:30 AM32 °FClear.7 mph93%29.53 "Hg10 mi
7:00 AM32 °FClear.8 mph93%29.53 "Hg10 mi
6:30 AM32 °FPassing clouds.6 mph93%29.56 "HgN/A
6:00 AM32 °FPassing clouds.8 mph100%29.59 "HgN/A
5:30 AM32 °FClear.8 mph93%29.62 "Hg10 mi
5:00 AM34 °FClear.9 mph93%29.62 "Hg10 mi
4:30 AM34 °FClear.9 mph93%29.62 "Hg10 mi
4:00 AM34 °FClear.10 mph93%29.65 "Hg10 mi
3:30 AM34 °FClear.9 mph93%29.68 "Hg10 mi
3:00 AM34 °FPassing clouds.10 mph93%29.68 "HgN/A
2:30 AM34 °FPassing clouds.13 mph93%29.68 "HgN/A
2:00 AM36 °FMostly cloudy.6 mph93%29.68 "HgN/A
1:30 AM34 °FMostly cloudy.9 mph100%29.71 "HgN/A
1:00 AM34 °FPassing clouds.5 mph93%29.71 "HgN/A
12:30 AM32 °FClear.6 mph93%29.71 "Hg5 mi
12:00 AM34 °FPassing clouds.2 mph93%29.71 "HgN/A
11:00 PM
Thu, Feb 11
32 °FPassing clouds.8 mph100%29.74 "HgN/A
10:30 PM32 °FClear.3 mph93%29.74 "Hg10 mi
10:00 PM32 °FClear.3 mph100%29.74 "Hg10 mi
Weather by CustomWeather, © 2016

See weather overviewHow to use our weather pages